Weather History for KMPO - September, 2013

Change the Weather History Date:

Wednesday, September 4, 2013

  Actual Average Record
Temperature  
Mean Temperature 65 °F 63 °F  
Max Temperature 74 °F 72 °F 88 °F (1973)
Min Temperature 56 °F 54 °F 31 °F (1908)
Degree Days  
Heating Degree Days 0 3  
Month to date heating degree days 0 12  
Since 1 July heating degree days 64 75  
Cooling Degree Days 0 1  
Month to date cooling degree days 14 4  
Year to date cooling degree days 433 300  
Growing Degree Days 14 (Base 50)    
Moisture  
Dew Point 53 °F    
Average Humidity 67    
Maximum Humidity 86    
Minimum Humidity 47    
Precipitation  
Precipitation 0.00 in 0.15 in 1.86 in (1905)
Month to date precipitation 0.47 0.60  
Year to date precipitation 36.12 31.58  
Sea Level Pressure  
Sea Level Pressure 30.00 in    
Wind  
Wind Speed 9 mph (WNW)    
Max Wind Speed 16 mph    
Max Gust Speed 23 mph    
Visibility 10 miles    
Events      
T = Trace of Precipitation, MM = Missing Value Source: NWS Daily Summary

Daily Weather History Graph

Daily Weather History Graph

Search for Another Location

Airport or City:

Trip Planner

Search our weather history database for the weather conditions in past years. The results will help you decide how hot, cold, wet, or windy it might be!

Date:

Astronomy

Sep. 04, 2013 Rise Set
Actual Time 6:31 AM EDT 7:28 PM EDT
Civil Twilight 6:03 AM EDT 7:56 PM EDT
Nautical Twilight 5:29 AM EDT 8:30 PM EDT
Astronomical Twilight 4:54 AM EDT 9:04 PM EDT
Moon 5:41 AM EDT (9/4) 6:47 PM EDT (9/4)
Length of Visible Light 13h 53m
Length of Day
12h 57m
Waning Crescent, 1% of the Moon is Illuminated
Sep 4
Waning Crescent
Sep 5
New
Sep 12
First Quarter
Sep 19
Full
Sep 26
Last Quarter

Hourly Weather History & Observations

Time (EDT) Temp. Dew Point Humidity Pressure Visibility Wind Dir Wind Speed Gust Speed Precip Events Conditions
1:53 AM 57.0 °F - N/A% 29.95 in 10.0 mi WNW 6.9 mph - N/A   Clear
2:36 AM 55.4 °F - N/A% 29.97 in 10.0 mi WNW 5.8 mph - N/A   Mostly Cloudy
2:53 AM 57.9 °F - N/A% 29.94 in 10.0 mi WNW 8.1 mph - N/A   Overcast
3:46 AM 57.2 °F - N/A% 29.98 in 10.0 mi NW 8.1 mph 16.1 mph N/A   Overcast
3:53 AM 57.9 °F - N/A% 29.96 in 10.0 mi NW 10.4 mph 18.4 mph N/A   Overcast
4:30 AM 57.2 °F - N/A% 29.98 in 10.0 mi NW 12.7 mph 23.0 mph N/A   Overcast
4:53 AM 57.9 °F - N/A% 29.97 in 10.0 mi NW 11.5 mph 20.7 mph N/A   Mostly Cloudy
5:00 AM 57.2 °F - N/A% 29.98 in 10.0 mi NW 11.5 mph 21.9 mph N/A   Scattered Clouds
5:53 AM 57.0 °F - N/A% 29.98 in 10.0 mi WNW 5.8 mph - N/A   Mostly Cloudy
6:53 AM 55.9 °F 52.0 °F 87% 30.01 in 10.0 mi WNW 6.9 mph - N/A   Scattered Clouds
7:53 AM 57.9 °F 52.0 °F 81% 30.02 in 10.0 mi NW 9.2 mph - N/A   Clear
8:53 AM 61.0 °F 50.0 °F 67% 30.03 in 10.0 mi NW 9.2 mph 18.4 mph N/A   Clear
9:53 AM 64.0 °F 52.0 °F 65% 30.03 in 10.0 mi NW 12.7 mph 21.9 mph N/A   Clear
10:53 AM 66.9 °F 52.0 °F 59% 30.04 in 10.0 mi NW 12.7 mph 18.4 mph N/A   Clear
11:53 AM 69.1 °F 51.1 °F 53% 30.04 in 10.0 mi NW 9.2 mph 18.4 mph N/A   Clear
12:53 PM 71.1 °F 50.0 °F 47% 30.03 in 10.0 mi NNW 11.5 mph 19.6 mph N/A   Clear
1:53 PM 72.0 °F 53.1 °F 51% 30.02 in 10.0 mi WNW 9.2 mph - N/A   Clear
2:53 PM 73.0 °F 53.1 °F 49% 30.01 in 10.0 mi WNW 10.4 mph 18.4 mph N/A   Scattered Clouds
3:53 PM 73.9 °F 55.9 °F 53% 30.01 in 10.0 mi West 10.4 mph - N/A   Partly Cloudy
4:53 PM 73.0 °F 55.0 °F 53% 30.01 in 10.0 mi West 11.5 mph - N/A   Scattered Clouds
5:53 PM 72.0 °F 54.0 °F 53% 30.01 in 10.0 mi West 10.4 mph - N/A   Clear
6:53 PM 70.0 °F 54.0 °F 57% 30.00 in 10.0 mi West 9.2 mph - N/A   Clear
7:53 PM 66.0 °F 54.0 °F 65% 30.01 in 10.0 mi West 5.8 mph - N/A   Clear
8:53 PM 63.0 °F 54.0 °F 72% 30.02 in 10.0 mi West 5.8 mph - N/A   Clear
9:53 PM 64.0 °F 54.0 °F 70% 30.02 in 10.0 mi West 9.2 mph - N/A   Clear
10:53 PM 62.1 °F 54.0 °F 75% 30.02 in 10.0 mi WNW 9.2 mph - N/A   Clear
11:53 PM 61.0 °F 54.0 °F 78% 30.01 in 10.0 mi West 8.1 mph - N/A   Clear